Friday Harbor, WA

2:08 AM PDT on August 26, 2016 (GMT -0700)
Friday Harbor

Weather History for KFHR - December, 2013

Change the Weather History Date:

Friday, December 20, 2013

  Actual Average Record
Temperature  
Mean Temperature 35 °F -  
Max Temperature 37 °F 43 °F 54 °F (2005)
Min Temperature 33 °F 34 °F 9 °F (2008)
Degree Days  
Heating Degree Days 30    
Moisture  
Dew Point 34 °F    
Average Humidity 94    
Maximum Humidity 100    
Minimum Humidity 87    
Precipitation  
Precipitation 0.09 in - - ()
Sea Level Pressure  
Sea Level Pressure 29.89 in    
Wind  
Wind Speed 10 mph (East)    
Max Wind Speed 16 mph    
Max Gust Speed 21 mph    
Visibility 3 miles    
Events Rain , Snow    
Averages and records for this station are not official NWS values.
T = Trace of Precipitation, MM = Missing Value Source: NWS Daily Summary

Daily Weather History Graph

Daily Weather History Graph

Search for Another Location

Airport or City:

Trip Planner

Search our weather history database for the weather conditions in past years. The results will help you decide how hot, cold, wet, or windy it might be!

Date:

Astronomy

Dec. 20, 2013 Rise Set
Actual Time 8:01 AM PST 4:18 PM PST
Civil Twilight 7:24 AM PST 4:55 PM PST
Nautical Twilight 6:43 AM PST 5:35 PM PST
Astronomical Twilight 6:05 AM PST 6:14 PM PST
Moon 7:59 PM PST (12/20) 9:44 AM PST (12/20)
Length of Visible Light 9h 31m
Length of Day
8h 17m
Waning Gibbous, 90% of the Moon is Illuminated
Dec 20
Waning Gibbous
Dec 25
Last Quarter
Jan 1
New
Jan 7
First Quarter
Jan 15
Full

Hourly Weather History & Observations

Time (PST) Temp. Windchill Dew Point Humidity Pressure Visibility Wind Dir Wind Speed Gust Speed Precip Events Conditions
12:53 AM 35.1 °F 27.9 °F 32.0 °F 89% 30.18 in 10.0 mi ESE 9.2 mph - 0.00 in   Overcast
1:03 AM 35.1 °F 28.6 °F 32.0 °F 89% 30.17 in 9.0 mi ESE 8.1 mph - 0.00 in   Overcast
1:51 AM 33.8 °F 25.3 °F 30.2 °F 87% 30.15 in 7.0 mi ESE 11.5 mph - 0.00 in Snow Light Snow
1:53 AM 34.0 °F 25.5 °F 30.9 °F 89% 30.15 in 7.0 mi ESE 11.5 mph - 0.00 in Snow Light Snow
2:15 AM 34.0 °F 25.5 °F 32.0 °F 92% 30.14 in 7.0 mi ESE 11.5 mph - 0.00 in Snow Light Snow
2:53 AM 34.0 °F 25.0 °F 32.0 °F 92% 30.14 in 6.0 mi ESE 12.7 mph - 0.00 in Snow Light Snow
3:14 AM 33.1 °F 23.4 °F 30.9 °F 92% 30.11 in 2.0 mi ESE 13.8 mph - 0.00 in Snow Light Snow
3:19 AM 33.1 °F 23.9 °F 30.9 °F 92% 30.11 in 1.8 mi ESE 12.7 mph - 0.00 in Snow Light Snow
3:38 AM 33.1 °F 23.9 °F 32.0 °F 96% 30.09 in 2.5 mi ESE 12.7 mph - 0.00 in Snow Light Snow
3:53 AM 33.1 °F 23.4 °F 32.0 °F 96% 30.10 in 2.5 mi ESE 13.8 mph - 0.00 in Snow Light Snow
4:14 AM 33.1 °F 24.9 °F 30.9 °F 92% 30.10 in 1.5 mi ESE 10.4 mph - 0.00 in Snow Light Snow
4:53 AM 33.1 °F 23.9 °F 30.9 °F 92% 30.09 in 1.0 mi East 12.7 mph - 0.02 in Snow Light Snow
5:04 AM 33.1 °F 24.4 °F 30.9 °F 92% 30.08 in 0.8 mi East 11.5 mph - 0.00 in Snow Light Snow
5:42 AM 33.1 °F 23.4 °F 30.9 °F 92% 30.04 in 1.0 mi ESE 13.8 mph - 0.03 in Snow Light Snow
5:53 AM 33.1 °F 23.0 °F 30.9 °F 92% 30.02 in 1.5 mi ESE 15.0 mph - 0.03 in Snow Light Snow
6:13 AM 33.1 °F 23.4 °F 30.9 °F 92% 30.02 in 1.5 mi ESE 13.8 mph - 0.00 in Snow Light Snow
6:29 AM 33.1 °F 23.4 °F 32.0 °F 96% 30.01 in 2.0 mi ESE 13.8 mph - 0.00 in Snow Light Snow
6:53 AM 33.1 °F 23.9 °F 32.0 °F 96% 30.02 in 3.0 mi ESE 12.7 mph - 0.00 in Snow Light Snow
7:05 AM 33.1 °F 23.9 °F 30.9 °F 92% 30.00 in 2.5 mi ESE 12.7 mph - 0.00 in Snow Light Snow
7:14 AM 33.1 °F 23.4 °F 32.0 °F 96% 29.99 in 3.0 mi East 13.8 mph - 0.00 in Snow Light Snow
7:29 AM 33.1 °F 24.4 °F 30.9 °F 92% 29.99 in 2.0 mi East 11.5 mph - 0.01 in Snow Light Snow
7:36 AM 33.1 °F 23.9 °F 30.9 °F 92% 29.98 in 1.8 mi East 12.7 mph - 0.01 in Snow Light Snow
7:49 AM 33.8 °F 24.3 °F 30.2 °F 87% 29.96 in 2.5 mi East 13.8 mph - 0.01 in Snow Light Snow
7:53 AM 33.1 °F 23.4 °F 30.9 °F 92% 29.97 in 3.0 mi East 13.8 mph - 0.01 in Snow Light Snow
8:03 AM 33.1 °F 23.9 °F 30.9 °F 92% 29.95 in 3.0 mi East 12.7 mph - 0.00 in Snow Light Snow
8:10 AM 33.1 °F 23.4 °F 30.9 °F 92% 29.94 in 2.0 mi East 13.8 mph 20.7 mph 0.00 in Snow Light Snow
8:18 AM 33.1 °F 23.9 °F 30.9 °F 92% 29.94 in 3.0 mi East 12.7 mph - 0.00 in Snow Light Snow
8:35 AM 33.1 °F 24.4 °F 30.9 °F 92% 29.93 in 2.5 mi East 11.5 mph - 0.00 in Snow Light Snow
8:50 AM 33.8 °F 23.9 °F 30.2 °F 87% 29.92 in 1.8 mi East 15.0 mph - 0.01 in Snow Light Snow
8:53 AM 33.1 °F 24.4 °F 30.9 °F 92% 29.93 in 2.0 mi East 11.5 mph - 0.01 in Snow Light Snow
9:17 AM 33.1 °F 25.5 °F 30.9 °F 92% 29.91 in 1.5 mi East 9.2 mph 19.6 mph 0.00 in Snow Light Snow
9:31 AM 33.1 °F 23.9 °F 30.9 °F 92% 29.90 in 2.5 mi East 12.7 mph 19.6 mph 0.00 in   Overcast
9:53 AM 33.1 °F 23.9 °F 32.0 °F 96% 29.87 in 2.0 mi East 12.7 mph - 0.00 in   Overcast
10:34 AM 34.0 °F 24.6 °F 32.0 °F 92% 29.85 in 4.0 mi East 13.8 mph - 0.00 in   Overcast
10:53 AM 34.0 °F 24.6 °F 32.0 °F 92% 29.83 in 4.0 mi ESE 13.8 mph - 0.00 in Rain Light Rain
11:16 AM 34.0 °F 23.8 °F 32.0 °F 92% 29.81 in 2.0 mi East 16.1 mph - 0.00 in Rain Light Rain
11:38 AM 35.1 °F 25.9 °F 33.1 °F 92% 29.79 in 4.0 mi East 13.8 mph - 0.01 in Rain Light Rain
11:53 AM 35.1 °F 27.9 °F 33.1 °F 92% 29.80 in 2.5 mi ESE 9.2 mph - 0.01 in Rain Light Rain
12:22 PM 35.1 °F 27.4 °F 34.0 °F 96% 29.77 in 3.0 mi East 10.4 mph - 0.01 in Rain Light Rain
12:53 PM 35.1 °F 27.9 °F 34.0 °F 96% 29.76 in 2.5 mi East 9.2 mph - 0.01 in Rain Light Rain
1:37 PM 36.0 °F 28.0 °F 34.0 °F 93% 29.73 in 3.0 mi East 11.5 mph - 0.00 in   Overcast
1:45 PM 36.0 °F 28.0 °F 34.0 °F 93% 29.72 in 2.0 mi East 11.5 mph - 0.00 in   Overcast
1:53 PM 36.0 °F 28.5 °F 34.0 °F 93% 29.73 in 1.8 mi ESE 10.4 mph - 0.00 in   Overcast
2:05 PM 36.0 °F 29.6 °F 34.0 °F 93% 29.73 in 2.0 mi East 8.1 mph - N/A   Overcast
2:11 PM 36.0 °F 29.6 °F 35.1 °F 97% 29.74 in 1.8 mi East 8.1 mph - 0.00 in   Overcast
2:44 PM 36.0 °F 29.6 °F 35.1 °F 97% 29.73 in 2.0 mi East 8.1 mph - 0.00 in   Overcast
2:53 PM 36.0 °F 28.0 °F 35.1 °F 97% 29.73 in 2.0 mi East 11.5 mph - 0.00 in   Overcast
3:02 PM 36.0 °F 28.5 °F 35.1 °F 97% 29.73 in 2.0 mi East 10.4 mph - N/A   Overcast
3:09 PM 37.0 °F 31.0 °F 35.1 °F 93% 29.72 in 1.8 mi East 8.1 mph - N/A   Overcast
3:21 PM 37.0 °F 31.6 °F 35.1 °F 93% 29.72 in 2.0 mi East 6.9 mph - N/A   Overcast
3:28 PM 37.0 °F 31.6 °F 35.1 °F 93% 29.72 in 1.8 mi East 6.9 mph - N/A   Overcast
3:53 PM 37.0 °F 32.4 °F 36.0 °F 96% 29.73 in 1.5 mi East 5.8 mph - N/A   Overcast
4:19 PM 37.0 °F - 36.0 °F 96% 29.73 in 3.0 mi Calm Calm - N/A   Overcast
4:35 PM 37.0 °F 34.5 °F 36.0 °F 96% 29.73 in 2.5 mi Variable 3.5 mph - N/A   Overcast
4:53 PM 37.0 °F 32.4 °F 36.0 °F 96% 29.73 in 3.0 mi Variable 5.8 mph - N/A   Overcast
5:14 PM 37.0 °F 34.5 °F 37.0 °F 100% 29.74 in 2.5 mi North 3.5 mph - N/A   Overcast
5:53 PM 37.0 °F 34.5 °F 36.0 °F 96% 29.75 in 2.0 mi NNW 3.5 mph - N/A   Overcast
6:53 PM 37.9 °F 34.4 °F 37.0 °F 97% 29.76 in 2.5 mi North 4.6 mph - N/A   Overcast
7:15 PM 37.0 °F 34.5 °F 37.0 °F 100% 29.76 in 3.0 mi North 3.5 mph - N/A   Overcast
7:24 PM 37.9 °F - 37.0 °F 97% 29.76 in 2.0 mi Calm Calm - 0.00 in Rain Light Rain
7:39 PM 37.9 °F 34.4 °F 37.0 °F 97% 29.77 in 4.0 mi North 4.6 mph - 0.00 in   Overcast
7:53 PM 37.0 °F 33.3 °F 36.0 °F 96% 29.78 in 3.0 mi North 4.6 mph - 0.00 in   Overcast
8:22 PM 37.9 °F 35.5 °F 37.0 °F 97% 29.79 in 4.0 mi NNW 3.5 mph - N/A   Overcast
8:38 PM 37.0 °F 33.3 °F 36.0 °F 96% 29.79 in 4.0 mi North 4.6 mph - N/A   Overcast
8:53 PM 37.0 °F 32.4 °F 36.0 °F 96% 29.80 in 4.0 mi North 5.8 mph - N/A   Overcast
9:10 PM 37.9 °F 34.4 °F 37.0 °F 97% 29.81 in 3.0 mi North 4.6 mph - N/A   Overcast
9:30 PM 37.9 °F 34.4 °F 37.0 °F 97% 29.82 in 3.0 mi North 4.6 mph - N/A   Overcast
9:53 PM 37.9 °F 35.5 °F 37.0 °F 97% 29.83 in 3.0 mi North 3.5 mph - N/A   Overcast
10:10 PM 37.9 °F 35.5 °F 37.0 °F 97% 29.84 in 8.0 mi NNW 3.5 mph - N/A   Overcast
10:53 PM 37.9 °F 35.5 °F 36.0 °F 93% 29.86 in 10.0 mi North 3.5 mph - N/A   Overcast
11:06 PM 37.0 °F 31.6 °F 36.0 °F 96% 29.86 in 8.0 mi North 6.9 mph - N/A   Overcast
11:19 PM 37.0 °F 32.4 °F 36.0 °F 96% 29.86 in 10.0 mi North 5.8 mph - N/A   Overcast
11:36 PM 37.0 °F - 37.0 °F 100% 29.87 in 10.0 mi Calm Calm - N/A   Overcast
11:53 PM 37.0 °F 34.5 °F 36.0 °F 96% 29.88 in 10.0 mi NNW 3.5 mph - N/A   Overcast